Location: Gradaro
(45.0833°N, 10.8833°E)
Time: 00:49:41
(UTC+00:00)

Cosmos 2263 Rocket - Pass Details

Date: 20 April 2021
Orbit: 824 x 848 km, 71.0° (Epoch: 15 May)

Event Time Altitude Azimuth Distance (km) Brightness Sun altitude
Exits shadow 22:50:33 42° 312° (NW) 1,168 3.1 -32.8°
Drops below altitude 10° 22:55:32 10° 14° (NNE) 2,437 5.3 -32.9°
Sets 22:58:07 0° 22° (NNE) 3,376 6.2 -32.9°
